sat.trackr.live / text

‹ back to catalog

STARLINK-5147

NORAD 53985 · 2022-125X

PAYLOAD ACTIVE UNKNOWN

§ Identity

Operator
Country
US
Launch date
2022-10-05
Launch site
AFWTR
Launch vehicle
Mass (kg)
RCS (m²)

Purposes: comms

External: N2YO · Heavens-Above · Gunter

§ Orbital elements

Epoch: 2026-09-20T20:41:26.141568Z

Period
95.44 min
Inclination
53.1595°
Eccentricity
0.0001514
Mean motion
15.08828814 rev/d
Perigee alt
538.7 km
Apogee alt
540.8 km
Semi-major
6,917.9 km
B*
1.1214e-5
RAAN
57.5251°
Arg perigee
92.6842°
Mean anomaly
267.4322°
Rev number
21,892

§ Raw data

STARLINK-51471 53985U 22125X   26263.86210812 -.00000110  00000+0  11214-4 0  99942 53985  53.1595  57.5251 0001514  92.6842 267.4322 15.08828814218920

JSON: /api/v1/satellites/53985 · /tle

For live sub-satellite position, see the globe view (requires WebGL).

§ Visibility from observer

Set your observer location to see the next 7 days of passes ≥ 10°. The values pass through the URL so the page stays shareable.

No JS? Fill the form by hand. The geolocation button needs JavaScript.